Location: Balsareny
(41.8670°N, 1.8830°E)
Time: 05:06:33
(UTC+01:00)

N. Korean satellite - Pass Details

Date: 03 December 2021
Orbit: 447 x 491 km, 97.3° (Epoch: 23 January)

Event Time Altitude Azimuth Distance (km) Brightness Sun altitude
Rises 18:27:24 0° 214° (SW) 2,535 11.1 -11.9°
Reaches altitude 10° 18:30:50 10° 250° (WSW) 1,650 10.8 -12.5°
Maximum altitude 18:31:58 11° 269° (W) 1,572 10.4 -12.7°
Drops below altitude 10° 18:33:06 10° 288° (WNW) 1,646 10.1 -12.9°
Sets 18:36:31 0° 324° (NW) 2,517 10.4 -13.6°
